CW9507 Weather Reports


time (UTC)temp
F
wind
direction
speed
knots
gust
knots
rain 1hr
in
rain 24hr
in
rain mn
in
humidity
%
barometer
mb
20260506231508 53 266 0.0 0.9 0.00 0.06 0.06 47 1012.1
20260506230008 54 347 0.0 0.9 0.00 0.06 0.06 46 1012.0
20260506224507 54 222 0.0 0.0 0.00 0.06 0.06 48 1012.0
20260506223111 55 284 0.0 1.7 0.00 0.06 0.06 45 1012.1
20260506221509 55 257 0.0 4.3 0.00 0.06 0.06 46 1012.1
20260506220013 55 15 0.0 0.0 0.00 0.06 0.06 45 1012.1
20260506214506 55 273 0.0 1.7 0.01 0.06 0.06 46 1012.1
20260506213004 55 254 0.0 1.7 0.01 0.06 0.06 44 1012.1
20260506211505 55 290 0.0 0.9 0.01 0.06 0.06 47 1012.0
20260506210007 54 277 0.0 0.9 0.01 0.06 0.06 49 1012.1
20260506204502 54 308 0.0 0.9 0.00 0.05 0.05 49 1012.0
20260506203001 55 336 0.0 6.1 0.00 0.05 0.05 47 1012.0
20260506201502 55 313 0.0 0.9 0.00 0.05 0.05 45 1012.1
20260506200106 55 125 0.0 0.9 0.00 0.05 0.05 50 1012.1
20260506194605 53 257 0.0 2.6 0.00 0.06 0.05 51 1012.2
20260506193059 53 329 0.0 5.2 0.00 0.06 0.05 49 1012.3
20260506191607 53 148 0.0 0.0 0.00 0.06 0.05 51 1012.5
20260506190055 53 205 0.0 5.2 0.00 0.06 0.05 52 1012.6
20260506184554 53 228 0.0 6.1 0.02 0.07 0.05 48 1012.5
20260506183101 53 238 0.0 5.2 0.02 0.07 0.05 47 1012.4
20260506181600 53 331 0.0 3.5 0.02 0.07 0.05 49 1012.4
20260506180112 53 236 0.0 4.3 0.02 0.07 0.05 48 1012.2
20260506174552 52 310 0.0 4.3 0.00 0.08 0.03 51 1012.4
20260506173119 52 247 0.0 7.0 0.00 0.08 0.03 51 1012.6
20260506171651 52 5 0.0 6.1 0.00 0.08 0.03 50 1012.6
20260506170048 53 229 0.0 1.7 0.00 0.08 0.03 48 1012.5
20260506164548 53 221 0.0 7.0 0.00 0.10 0.03 51 1012.5
20260506163052 54 347 0.0 6.1 0.00 0.10 0.03 47 1012.4
20260506161554 54 254 0.0 7.0 0.00 0.10 0.03 47 1012.3
20260506160045 53 295 0.0 5.2 0.00 0.10 0.03 48 1012.2
20260506154542 54 237 0.0 4.3 0.00 0.14 0.03 48 1012.1
20260506153139 53 220 0.0 0.9 0.01 0.14 0.03 52 1012.0
20260506151538 53 333 0.0 3.5 0.02 0.14 0.03 53 1012.0
20260506150035 53 281 0.0 5.2 0.02 0.14 0.03 54 1011.8
20260506144540 52 270 0.0 0.9 0.02 0.15 0.03 54 1011.9
20260506143031 52 60 0.0 7.8 0.01 0.14 0.02 54 1011.5
20260506141534 51 287 0.0 0.9 0.01 0.13 0.01 57 1011.6
20260506140024 50 324 0.0 1.7 0.01 0.13 0.01 57 1011.7
20260506134523 50 275 0.0 2.6 0.01 0.19 0.01 59 1011.3
20260506133021 50 252 0.0 7.8 0.01 0.19 0.01 64 1011.1
20260506131525 50 277 0.0 0.0 0.00 0.18 0.00 68 1011.0
20260506130017 48 228 0.0 0.0 0.00 0.18 0.00 72 1010.8
20260506124511 48 237 0.0 0.9 0.00 0.22 0.00 72 1010.8
20260506123009 47 288 0.0 5.2 0.00 0.22 0.00 74 1010.5
20260506121505 45 323 0.0 2.6 0.00 0.22 0.00 80 1010.4
20260506120002 44 306 0.0 0.0 0.00 0.22 0.00 86 1010.1
20260506114502 43 228 0.0 0.0 0.00 0.36 0.00 88 1010.0
20260506113101 43 228 0.0 0.0 0.00 0.36 0.00 88 1009.9
20260506111600 43 228 0.0 0.0 0.00 0.36 0.00 89 1009.7
20260506110055 43 228 0.0 0.0 0.00 0.36 0.00 89 1009.3
20260506104557 44 222 0.0 0.0 0.00 0.39 0.00 90 1009.1
20260506103050 44 222 0.0 0.0 0.00 0.39 0.00 91 1009.0
20260506101548 44 219 0.0 0.0 0.00 0.39 0.00 92 1008.9
20260506100047 44 219 0.0 0.0 0.00 0.39 0.00 91 1008.6
20260506094551 45 219 0.0 0.0 0.00 0.39 0.00 92 1008.4
20260506093045 45 219 0.0 0.0 0.00 0.39 0.00 92 1008.6
20260506091545 45 219 0.0 0.0 0.00 0.39 0.00 92 1008.4
20260506090044 45 219 0.0 0.0 0.00 0.39 0.00 92 1008.2
20260506084546 45 219 0.0 0.0 0.00 0.41 0.00 93 1008.2
20260506083043 45 219 0.0 0.0 0.00 0.41 0.00 93 1008.3
20260506081541 45 219 0.0 0.0 0.00 0.41 0.00 93 1008.3
20260506073040 45 219 0.0 0.0 0.00 0.44 0.00 93 1008.2
20260506071538 45 220 0.0 0.0 0.00 0.44 0.00 93 1008.4
20260506061533 45 226 0.0 0.0 0.00 0.44 0.00 93 1008.6
20260506044537 46 223 0.0 0.0 0.00 0.46 0.00 93 1008.6
20260506043025 46 223 0.0 0.0 0.00 0.46 0.00 93 1008.6
20260506041537 46 223 0.0 0.0 0.00 0.46 0.00 93 1008.5
20260506040022 46 223 0.0 0.0 0.00 0.46 0.00 93 1008.6
20260506034520 46 223 0.0 0.0 0.00 0.66 0.46 93 1008.4
20260506033020 45 223 0.0 0.0 0.00 0.66 0.46 93 1008.0
20260506031520 45 223 0.0 0.0 0.00 0.66 0.46 93 1008.1
20260506030018 46 223 0.0 0.0 0.00 0.66 0.46 92 1008.2
20260506024519 46 223 0.0 0.0 0.00 0.71 0.46 92 1008.4
20260506023019 46 223 0.0 0.0 0.00 0.71 0.46 92 1008.5
20260506021516 46 223 0.0 0.0 0.00 0.71 0.46 92 1008.3
20260506020010 47 223 0.0 0.0 0.00 0.71 0.46 92 1008.4
20260506014507 48 223 0.0 0.0 0.00 0.77 0.46 92 1008.2
20260506013006 49 223 0.0 0.0 0.00 0.77 0.46 93 1007.9
20260506011512 49 223 0.0 0.0 0.00 0.77 0.46 92 1007.7
20260506010002 49 223 0.0 0.0 0.00 0.78 0.46 92 1007.5
20260506004504 49 223 0.0 0.0 0.00 0.78 0.46 92 1007.5
20260506003101 49 223 0.0 0.0 0.00 0.78 0.46 92 1007.7
20260506001602 49 223 0.0 0.0 0.00 0.78 0.46 92 1007.5
20260505234558 50 144 0.0 0.0 0.00 0.80 0.46 91 1007.2
20260505233057 50 179 0.0 0.9 0.00 0.80 0.46 91 1006.9